Location: Kawakawa
(35.3830°S, 174.0670°E)
Time: 04:15:19
(UTC+13:00)

Resurs 1-3 - Pass Details

Date: 24 January 2019
Orbit: 630 x 632 km, 98.0° (Epoch: 16 October)

Event Time Altitude Azimuth Distance (km) Brightness Sun altitude
Rises 21:48:31 0° 159° (SSE) 2,957 7.2 -13.3°
Reaches altitude 10° 21:50:52 10° 150° (SSE) 2,041 6.3 -13.7°
Maximum altitude 21:55:01 38° 82° (E) 981 4.1 -14.4°
Enters shadow 21:57:24 21° 27° (NNE) 1,423 4.9 -14.8°
